Time,TemperatureF,DewpointF,PressureIn,WindDirection,WindDirectionDegrees,WindSpeedMPH,WindSpeedGustMPH,Humidity,HourlyPrecipIn,Conditions,Clouds,dailyrainin,SoftwareType,DateUTC
2013-05-08 00:01:00,53.0,50.0,30.09,SSE,156,5.0,9.0,91,0.00,,,0.00,,2013-05-08 07:01:00,
2013-05-08 00:11:00,53.0,50.0,30.09,SSE,156,5.0,9.0,91,0.00,,,0.00,,2013-05-08 07:11:00,
2013-05-08 00:21:00,53.0,50.0,30.09,SE,142,0.0,8.0,91,0.00,,,0.00,,2013-05-08 07:21:00,
2013-05-08 00:31:00,53.0,50.0,30.09,SSE,158,3.0,8.0,91,0.00,,,0.00,,2013-05-08 07:31:00,
2013-05-08 00:41:00,53.0,50.0,30.09,SSE,158,3.0,8.0,91,0.00,,,0.00,,2013-05-08 07:41:00,
2013-05-08 00:52:00,53.0,50.0,30.10,ESE,121,1.0,6.0,91,0.00,,,0.00,,2013-05-08 07:52:00,
2013-05-08 01:01:00,53.0,50.0,30.10,SE,124,3.0,7.0,91,0.00,,,0.00,,2013-05-08 08:01:00,
2013-05-08 01:11:00,53.0,50.0,30.10,SE,124,3.0,7.0,91,0.00,,,0.00,,2013-05-08 08:11:00,
2013-05-08 01:21:00,53.0,50.0,30.10,South,169,2.0,5.0,91,0.00,,,0.00,,2013-05-08 08:21:00,
2013-05-08 01:31:00,53.0,50.0,30.10,SW,214,6.0,7.0,91,0.00,,,0.00,,2013-05-08 08:31:00,
2013-05-08 01:42:00,53.0,50.0,30.10,SW,214,6.0,7.0,91,0.00,,,0.00,,2013-05-08 08:42:00,
2013-05-08 01:52:00,53.0,50.0,30.10,South,180,6.0,7.0,90,0.00,,,0.00,,2013-05-08 08:52:00,
2013-05-08 02:01:00,53.0,50.0,30.10,South,180,0.0,9.0,90,0.00,,,0.00,,2013-05-08 09:01:00,
2013-05-08 02:11:00,53.0,50.0,30.10,South,180,0.0,9.0,90,0.00,,,0.00,,2013-05-08 09:11:00,
2013-05-08 02:21:00,53.0,50.0,30.10,South,183,4.0,8.0,91,0.00,,,0.00,,2013-05-08 09:21:00,
2013-05-08 02:32:00,53.0,50.0,30.10,South,191,5.0,9.0,90,0.00,,,0.00,,2013-05-08 09:32:00,
2013-05-08 02:42:00,53.0,50.0,30.10,South,191,5.0,9.0,90,0.00,,,0.00,,2013-05-08 09:42:00,
2013-05-08 02:53:00,53.0,50.0,30.10,SSW,193,2.0,7.0,91,0.00,,,0.00,,2013-05-08 09:53:00,
2013-05-08 03:02:00,53.0,50.0,30.10,SSW,211,1.0,7.0,91,0.00,,,0.00,,2013-05-08 10:02:00,
2013-05-08 03:12:00,53.0,50.0,30.10,SSW,211,1.0,7.0,91,0.00,,,0.00,,2013-05-08 10:12:00,
2013-05-08 03:22:00,53.0,50.0,30.10,South,191,4.0,7.0,91,0.00,,,0.00,,2013-05-08 10:22:00,
2013-05-08 03:32:00,53.0,51.0,30.10,South,183,2.0,8.0,92,0.00,,,0.00,,2013-05-08 10:32:00,
2013-05-08 03:42:00,53.0,51.0,30.10,South,183,2.0,8.0,92,0.00,,,0.00,,2013-05-08 10:42:00,
2013-05-08 03:52:00,53.0,51.0,30.11,SSW,198,4.0,9.0,92,0.00,,,0.00,,2013-05-08 10:52:00,
2013-05-08 04:02:00,53.0,51.0,30.11,SW,228,2.0,9.0,92,0.00,,,0.00,,2013-05-08 11:02:00,
2013-05-08 04:11:00,53.0,51.0,30.11,SW,228,2.0,9.0,92,0.00,,,0.00,,2013-05-08 11:11:00,
2013-05-08 04:22:00,53.0,51.0,30.11,SSW,212,2.0,8.0,92,0.00,,,0.00,,2013-05-08 11:22:00,
2013-05-08 04:32:00,52.0,50.0,30.11,South,190,0.0,7.0,92,0.00,,,0.00,,2013-05-08 11:32:00,
2013-05-08 04:41:00,52.0,50.0,30.11,South,190,0.0,7.0,92,0.00,,,0.00,,2013-05-08 11:41:00,
2013-05-08 04:52:00,52.0,50.0,30.11,South,176,3.0,5.0,92,0.00,,,0.00,,2013-05-08 11:52:00,
2013-05-08 05:01:00,52.0,50.0,30.11,SSW,197,1.0,7.0,92,0.00,,,0.00,,2013-05-08 12:01:00,
2013-05-08 05:11:00,52.0,50.0,30.11,SSW,197,1.0,7.0,92,0.00,,,0.00,,2013-05-08 12:11:00,
2013-05-08 05:21:00,53.0,51.0,30.11,SSW,193,3.0,6.0,92,0.00,,,0.00,,2013-05-08 12:21:00,
2013-05-08 05:31:00,53.0,51.0,30.11,South,183,4.0,8.0,93,0.00,,,0.00,,2013-05-08 12:31:00,
2013-05-08 05:41:00,53.0,51.0,30.11,South,183,4.0,8.0,93,0.00,,,0.00,,2013-05-08 12:41:00,
2013-05-08 05:52:00,53.0,51.0,30.12,South,191,0.0,6.0,93,0.00,,,0.00,,2013-05-08 12:52:00,
2013-05-08 06:01:00,53.0,51.0,30.12,South,179,0.0,5.0,93,0.00,,,0.00,,2013-05-08 13:01:00,
2013-05-08 06:11:00,53.0,51.0,30.12,South,179,0.0,5.0,93,0.00,,,0.00,,2013-05-08 13:11:00,
2013-05-08 06:21:00,52.0,50.0,30.12,SSW,198,0.0,6.0,93,0.00,,,0.00,,2013-05-08 13:21:00,
2013-05-08 06:32:00,52.0,50.0,30.13,South,175,3.0,5.0,94,0.00,,,0.00,,2013-05-08 13:32:00,
2013-05-08 06:42:00,52.0,50.0,30.13,South,175,3.0,5.0,94,0.00,,,0.00,,2013-05-08 13:42:00,
2013-05-08 06:52:00,53.0,51.0,30.13,North,0,0.0,0.0,94,0.00,,,0.00,,2013-05-08 13:52:00,
2013-05-08 07:01:00,52.0,50.0,30.13,SSE,168,0.0,2.0,94,0.00,,,0.00,,2013-05-08 14:01:00,
2013-05-08 07:11:00,52.0,50.0,30.13,SSE,168,0.0,2.0,94,0.00,,,0.00,,2013-05-08 14:11:00,
2013-05-08 07:21:00,52.0,50.0,30.14,SSE,154,1.0,6.0,94,0.00,,,0.00,,2013-05-08 14:21:00,
2013-05-08 07:31:00,52.0,50.0,30.14,North,0,0.0,6.0,94,0.00,,,0.00,,2013-05-08 14:31:00,
2013-05-08 07:41:00,52.0,50.0,30.14,North,0,0.0,6.0,94,0.00,,,0.00,,2013-05-08 14:41:00,
2013-05-08 07:52:00,52.0,50.0,30.14,North,0,0.0,0.0,93,0.00,,,0.00,,2013-05-08 14:52:00,
2013-05-08 08:01:00,52.0,50.0,30.14,North,0,0.0,0.0,93,0.00,,,0.00,,2013-05-08 15:01:00,
2013-05-08 08:11:00,52.0,50.0,30.14,North,0,0.0,0.0,93,0.00,,,0.00,,2013-05-08 15:11:00,
2013-05-08 08:21:00,53.0,51.0,30.15,South,175,0.0,4.0,93,0.00,,,0.00,,2013-05-08 15:21:00,
2013-05-08 08:32:00,53.0,51.0,30.15,SE,135,0.0,5.0,93,0.00,,,0.00,,2013-05-08 15:32:00,
2013-05-08 08:42:00,53.0,51.0,30.15,SE,135,0.0,5.0,93,0.00,,,0.00,,2013-05-08 15:42:00,
2013-05-08 08:52:00,53.0,51.0,30.15,SSE,152,1.0,7.0,93,0.00,,,0.00,,2013-05-08 15:52:00,
2013-05-08 09:02:00,53.0,51.0,30.15,South,187,2.0,6.0,93,0.00,,,0.00,,2013-05-08 16:02:00,
2013-05-08 09:12:00,53.0,51.0,30.15,South,187,2.0,6.0,93,0.00,,,0.00,,2013-05-08 16:12:00,
2013-05-08 09:23:00,53.0,51.0,30.15,South,179,0.0,6.0,93,0.00,,,0.00,,2013-05-08 16:23:00,
2013-05-08 09:33:00,53.0,51.0,30.16,SW,235,0.0,6.0,93,0.00,,,0.00,,2013-05-08 16:33:00,
2013-05-08 09:42:00,53.0,51.0,30.16,SW,235,0.0,6.0,93,0.00,,,0.00,,2013-05-08 16:42:00,
2013-05-08 09:52:00,53.0,51.0,30.16,SSW,201,0.0,4.0,92,0.00,,,0.00,,2013-05-08 16:52:00,
2013-05-08 10:02:00,53.0,51.0,30.16,WSW,245,0.0,6.0,92,0.00,,,0.00,,2013-05-08 17:02:00,
2013-05-08 10:11:00,53.0,51.0,30.16,WSW,245,0.0,6.0,92,0.00,,,0.00,,2013-05-08 17:11:00,
2013-05-08 10:22:00,54.0,51.0,30.16,SSW,196,0.0,5.0,91,0.00,,,0.00,,2013-05-08 17:22:00,
2013-05-08 10:31:00,54.0,51.0,30.16,SSW,196,0.0,5.0,91,0.00,,,0.00,,2013-05-08 17:31:00,
2013-05-08 10:41:00,54.0,51.0,30.16,SSW,196,0.0,5.0,91,0.00,,,0.00,,2013-05-08 17:41:00,
2013-05-08 10:52:00,55.0,52.0,30.16,WSW,253,4.0,7.0,91,0.00,,,0.00,,2013-05-08 17:52:00,
2013-05-08 11:01:00,55.0,52.0,30.17,WSW,253,3.0,7.0,90,0.00,,,0.00,,2013-05-08 18:01:00,
2013-05-08 11:11:00,55.0,52.0,30.17,WSW,243,4.0,7.0,90,0.00,,,0.00,,2013-05-08 18:11:00,
2013-05-08 11:21:00,55.0,52.0,30.17,WSW,243,4.0,7.0,90,0.00,,,0.00,,2013-05-08 18:21:00,
2013-05-08 11:31:00,55.0,52.0,30.17,WSW,246,2.0,7.0,89,0.00,,,0.00,,2013-05-08 18:31:00,
2013-05-08 11:41:00,56.0,52.0,30.18,WSW,253,2.0,8.0,88,0.00,,,0.00,,2013-05-08 18:41:00,
2013-05-08 11:52:00,56.0,52.0,30.18,WSW,253,2.0,8.0,88,0.00,,,0.00,,2013-05-08 18:52:00,
2013-05-08 12:01:00,55.0,52.0,30.18,WSW,240,2.0,8.0,88,0.00,,,0.00,,2013-05-08 19:01:00,
2013-05-08 12:11:00,55.0,52.0,30.18,WSW,240,2.0,8.0,88,0.00,,,0.00,,2013-05-08 19:11:00,
2013-05-08 12:21:00,56.0,52.0,30.19,WSW,256,5.0,7.0,87,0.00,,,0.00,,2013-05-08 19:21:00,
2013-05-08 12:31:00,56.0,52.0,30.19,West,267,1.0,7.0,87,0.00,,,0.00,,2013-05-08 19:31:00,
2013-05-08 12:41:00,57.0,53.0,30.19,WSW,250,4.0,6.0,86,0.00,,,0.00,,2013-05-08 19:41:00,
2013-05-08 12:52:00,57.0,53.0,30.19,WSW,250,4.0,6.0,86,0.00,,,0.00,,2013-05-08 19:52:00,
2013-05-08 13:01:00,57.0,53.0,30.19,WSW,238,2.0,6.0,87,0.00,,,0.00,,2013-05-08 20:01:00,
2013-05-08 13:11:00,57.0,53.0,30.18,WSW,253,4.0,7.0,85,0.00,,,0.00,,2013-05-08 20:11:00,
2013-05-08 13:22:00,57.0,53.0,30.18,WSW,253,4.0,7.0,85,0.00,,,0.00,,2013-05-08 20:22:00,
2013-05-08 13:31:00,58.0,54.0,30.18,WSW,250,2.0,6.0,85,0.00,,,0.00,,2013-05-08 20:31:00,
2013-05-08 13:41:00,59.0,54.0,30.18,WSW,243,1.0,6.0,83,0.00,,,0.00,,2013-05-08 20:41:00,
2013-05-08 13:52:00,59.0,54.0,30.18,WSW,243,1.0,6.0,83,0.00,,,0.00,,2013-05-08 20:52:00,
2013-05-08 14:01:00,59.0,54.0,30.18,WNW,287,3.0,6.0,82,0.00,,,0.00,,2013-05-08 21:01:00,
2013-05-08 14:11:00,59.0,54.0,30.17,NW,323,5.0,7.0,82,0.00,,,0.00,,2013-05-08 21:11:00,
2013-05-08 14:21:00,59.0,54.0,30.17,NW,323,5.0,7.0,82,0.00,,,0.00,,2013-05-08 21:21:00,
2013-05-08 14:32:00,59.0,54.0,30.17,WNW,299,4.0,6.0,82,0.00,,,0.00,,2013-05-08 21:32:00,
2013-05-08 14:43:00,59.0,53.0,30.17,NW,313,4.0,7.0,81,0.00,,,0.00,,2013-05-08 21:43:00,
2013-05-08 14:52:00,59.0,53.0,30.17,NW,313,4.0,7.0,81,0.00,,,0.00,,2013-05-08 21:52:00,
2013-05-08 15:02:00,60.0,54.0,30.17,WNW,291,5.0,7.0,82,0.00,,,0.00,,2013-05-08 22:02:00,
2013-05-08 15:12:00,60.0,54.0,30.17,NW,320,4.0,9.0,80,0.00,,,0.00,,2013-05-08 22:12:00,
2013-05-08 15:22:00,60.0,54.0,30.17,NW,320,4.0,9.0,80,0.00,,,0.00,,2013-05-08 22:22:00,
2013-05-08 15:32:00,60.0,54.0,30.17,NW,320,4.0,9.0,80,0.00,,,0.00,,2013-05-08 22:32:00,
2013-05-08 15:42:00,60.0,54.0,30.16,WNW,296,7.0,10.0,80,0.00,,,0.00,,2013-05-08 22:42:00,
2013-05-08 15:52:00,60.0,54.0,30.16,WNW,296,7.0,10.0,80,0.00,,,0.00,,2013-05-08 22:52:00,
2013-05-08 16:01:00,60.0,53.0,30.16,WNW,301,8.0,10.0,79,0.00,,,0.00,,2013-05-08 23:01:00,
2013-05-08 16:11:00,60.0,53.0,30.15,NW,308,7.0,11.0,79,0.00,,,0.00,,2013-05-08 23:11:00,
2013-05-08 16:22:00,60.0,53.0,30.15,NW,308,7.0,11.0,79,0.00,,,0.00,,2013-05-08 23:22:00,
2013-05-08 16:32:00,60.0,53.0,30.15,NW,322,9.0,11.0,79,0.00,,,0.00,,2013-05-08 23:32:00,
2013-05-08 16:41:00,60.0,54.0,30.15,NNW,331,9.0,13.0,80,0.00,,,0.00,,2013-05-08 23:41:00,
2013-05-08 16:52:00,60.0,54.0,30.15,NNW,331,9.0,13.0,80,0.00,,,0.00,,2013-05-08 23:52:00,
2013-05-08 17:01:00,60.0,54.0,30.15,NW,317,7.0,12.0,81,0.00,,,0.00,,2013-05-09 00:01:00,
2013-05-08 17:11:00,59.0,53.0,30.15,NW,317,8.0,15.0,81,0.00,,,0.00,,2013-05-09 00:11:00,
2013-05-08 17:21:00,59.0,53.0,30.15,NW,317,8.0,15.0,81,0.00,,,0.00,,2013-05-09 00:21:00,
2013-05-08 17:32:00,59.0,54.0,30.15,NW,322,8.0,15.0,82,0.00,,,0.00,,2013-05-09 00:32:00,
2013-05-08 17:42:00,58.0,53.0,30.15,NW,308,10.0,14.0,82,0.00,,,0.00,,2013-05-09 00:42:00,
2013-05-08 17:52:00,58.0,53.0,30.15,NW,308,10.0,14.0,82,0.00,,,0.00,,2013-05-09 00:52:00,
2013-05-08 18:01:00,58.0,53.0,30.15,NW,323,11.0,14.0,82,0.00,,,0.00,,2013-05-09 01:01:00,
2013-05-08 18:11:00,58.0,53.0,30.15,NW,315,10.0,16.0,82,0.00,,,0.00,,2013-05-09 01:11:00,
2013-05-08 18:22:00,58.0,53.0,30.15,NW,315,10.0,16.0,82,0.00,,,0.00,,2013-05-09 01:22:00,
2013-05-08 18:32:00,59.0,53.0,30.15,WNW,299,9.0,13.0,81,0.00,,,0.00,,2013-05-09 01:32:00,
2013-05-08 18:42:00,58.0,53.0,30.15,NW,323,8.0,12.0,82,0.00,,,0.00,,2013-05-09 01:42:00,
2013-05-08 18:52:00,58.0,53.0,30.15,NW,323,8.0,12.0,82,0.00,,,0.00,,2013-05-09 01:52:00,
2013-05-08 19:01:00,58.0,53.0,30.15,NNW,341,9.0,13.0,82,0.00,,,0.00,,2013-05-09 02:01:00,
2013-05-08 19:11:00,57.0,52.0,30.15,NNW,345,8.0,13.0,84,0.00,,,0.00,,2013-05-09 02:11:00,
2013-05-08 19:21:00,57.0,52.0,30.15,NNW,345,8.0,13.0,84,0.00,,,0.00,,2013-05-09 02:21:00,
2013-05-08 19:32:00,57.0,53.0,30.15,NNW,334,8.0,14.0,85,0.00,,,0.00,,2013-05-09 02:32:00,
2013-05-08 19:41:00,57.0,53.0,30.15,NNW,334,8.0,14.0,85,0.00,,,0.00,,2013-05-09 02:41:00,
2013-05-08 19:52:00,57.0,53.0,30.15,NNW,334,8.0,14.0,85,0.00,,,0.00,,2013-05-09 02:52:00,
2013-05-08 20:01:00,56.0,52.0,30.16,NNW,337,4.0,9.0,86,0.00,,,0.00,,2013-05-09 03:01:00,
2013-05-08 20:11:00,55.0,51.0,30.16,NNW,334,6.0,12.0,87,0.00,,,0.00,,2013-05-09 03:11:00,
2013-05-08 20:21:00,55.0,51.0,30.16,NNW,334,6.0,12.0,87,0.00,,,0.00,,2013-05-09 03:21:00,
2013-05-08 20:32:00,55.0,51.0,30.16,NNW,331,6.0,9.0,87,0.00,,,0.00,,2013-05-09 03:32:00,
2013-05-08 20:43:00,55.0,52.0,30.16,NNW,334,5.0,8.0,88,0.00,,,0.00,,2013-05-09 03:43:00,
2013-05-08 20:53:00,55.0,52.0,30.16,NNW,334,5.0,8.0,88,0.00,,,0.00,,2013-05-09 03:53:00,
2013-05-08 21:02:00,55.0,52.0,30.17,NW,316,6.0,9.0,88,0.00,,,0.00,,2013-05-09 04:02:00,
2013-05-08 21:12:00,54.0,51.0,30.17,NW,313,3.0,10.0,88,0.00,,,0.00,,2013-05-09 04:12:00,
2013-05-08 21:22:00,54.0,51.0,30.17,NW,313,3.0,10.0,88,0.00,,,0.00,,2013-05-09 04:22:00,
2013-05-08 21:32:00,54.0,51.0,30.17,NW,313,5.0,8.0,89,0.00,,,0.00,,2013-05-09 04:32:00,
2013-05-08 21:42:00,54.0,51.0,30.17,NW,313,5.0,8.0,89,0.00,,,0.00,,2013-05-09 04:42:00,
2013-05-08 21:52:00,54.0,51.0,30.18,North,355,0.0,5.0,89,0.00,,,0.00,,2013-05-09 04:52:00,
2013-05-08 22:02:00,54.0,51.0,30.18,North,8,2.0,6.0,89,0.00,,,0.00,,2013-05-09 05:02:00,
2013-05-08 22:11:00,54.0,51.0,30.19,WNW,287,2.0,7.0,90,0.00,,,0.00,,2013-05-09 05:11:00,
2013-05-08 22:21:00,54.0,51.0,30.19,WNW,287,2.0,7.0,90,0.00,,,0.00,,2013-05-09 05:21:00,
2013-05-08 22:32:00,53.0,50.0,30.19,North,357,1.0,7.0,90,0.00,,,0.00,,2013-05-09 05:32:00,
2013-05-08 22:42:00,54.0,51.0,30.19,NNW,330,2.0,9.0,90,0.00,,,0.00,,2013-05-09 05:42:00,
2013-05-08 22:51:00,54.0,51.0,30.19,NNW,330,2.0,9.0,90,0.00,,,0.00,,2013-05-09 05:51:00,
2013-05-08 23:01:00,53.0,50.0,30.19,NNW,344,3.0,8.0,90,0.00,,,0.00,,2013-05-09 06:01:00,
2013-05-08 23:11:00,54.0,51.0,30.19,North,11,1.0,6.0,90,0.00,,,0.00,,2013-05-09 06:11:00,
2013-05-08 23:21:00,54.0,51.0,30.19,North,11,1.0,6.0,90,0.00,,,0.00,,2013-05-09 06:21:00,
2013-05-08 23:32:00,54.0,51.0,30.20,WNW,291,0.0,6.0,91,0.00,,,0.00,,2013-05-09 06:32:00,
2013-05-08 23:41:00,54.0,51.0,30.21,North,0,0.0,0.0,91,0.00,,,0.00,,2013-05-09 06:41:00,
2013-05-08 23:52:00,54.0,51.0,30.21,North,0,0.0,0.0,91,0.00,,,0.00,,2013-05-09 06:52:00,